Showing default

COSMOS 1913, 18792

Orbit data source: Space-Track

COSMOS 1913, 18792 is a payload satellite owned by UNKS (CIS) in LEO that was launched on Fri, 15 Jan 1988 UTC via a TSIKLON-3 launch vehicle from the Plesetsk Missile And Space Complex (PKMTR). Payload-class satellites include a variety of spacecraft equipped with specific instruments for various scientific and technological missions. These include communications satellites like Starlink; space stations such as the ISS; scientific satellites like the Hubble; Earth observation satellites from companies like Planet Labs, Umbra, and HawkEye 360; GPS; miniature CubeSats for education and research; and military/defense satellites.

Loading next visibility...
Identifier
18792, 1988-002E
Orbit
LEO
Country
Flag of CISCIS
Related business
Manufacturer
NPO PM
Mission
Defense Communications
Bus & Motor
STRELA-3, Unknown motor
Mass
225 kg wet, 225 kg dry
Launch date (UTC)
1988-01-15 (38 years ago)
Launch vehicle
TSIKLON-3
Launch site
Plesetsk Missile And Space Complex (PKMTR)
Object type
Payload
Rocket body
Debris
Shape & HBR
Cyl, 0.8 m
Radar Cross Section
1.257 m², Medium (>0.1 m² and < 1m²)

Expand to show TLE details & history
Last TLE update: 1 day ago

TLE from 1 day ago
0 COSMOS 1913
1 18792U 88002E   25260.86491875  .00000028  00000-0  94722-4 0  9996
2 18792  82.6021  31.0129 0012923 332.0607 142.1515 12.65737352740306
Epoch: 2025-09-17T20:45Z
TLE epoch observation values (Epoch: 2025-09-17T20:45:28.979Z)
Latitude
64.74295°
Longitude
-113.28633°
Altitude
1,418.433 km
Speed
7.154 km/s
True Right ascension
13h 00m 28s
True Declination
64° 37' 17"
Sunlit
Object was in daylight at epoch
Visualization orbit readout
Latitude
Unknown
Longitude
Unknown
Altitude
Unknown
Speed
Unknown
Apparent Right ascension
Unknown
Apparent Declination
Unknown
Sunlit
N/A
Visualization observer readout
Local Sidereal Time
19:29:26
Azimuth
Unknown
Elevation
Unknown
Doppler factor
Unknown
Orbital elements
Apogee altitude
1,406.715 km
Perigee altitude
1,386.62 km
Semi-major axis
7,774.805 km
Eccentricity
0.00129
Inclination
82.6021°
RAAN
31.0129°
Arg. of periapsis
332.0607°
True anomaly
142.24225°
Mean anomaly
142.1515°
Eccentric anomaly
142.19688°
Mean motion
3.16599 °/min
Orbital period
113.71 mins
BSTAR
0.000094722
Loading maneuver chart data...
Computing Atmospheric mass density...
Loading historical data...
Loading historical data...
Loading historical data...
Loading historical data...
Loading historical data...
Loading historical data...
Loading historical data...

Documentation

Showing up to 5 results
|